EW0608 Weather Reports


Display with metric or nautical units.
time (UTC)temp
F
wind
direction
speed
MPH
gust
MPH
rain 1hr
in
rain 24hr
in
rain mn
in
humidity
%
barometer
mb
20260902033841 72 175 0.0 0.0 0.00 0.00 0.00 93 1016.6
20260902033355 72 175 0.0 0.0 0.00 0.00 0.00 93 1016.6
20260902033049 71 175 0.0 0.0 0.00 0.00 0.00 93 1015.1
20260902032849 72 175 0.0 0.0 0.00 0.00 0.00 93 1016.6
20260902032341 71 175 0.0 0.0 0.00 0.00 0.00 93 1016.6
20260902031851 71 175 0.0 0.0 0.00 0.00 0.00 93 1016.5
20260902031544 71 175 0.0 0.0 0.00 0.00 0.00 93 1015.0
20260902031343 71 175 0.0 0.0 0.00 0.00 0.00 93 1016.5
20260902030836 72 175 0.0 0.0 0.00 0.00 0.00 93 1016.5
20260902030429 72 175 0.0 0.0 0.00 0.00 0.00 93 1016.5
20260902030056 72 175 0.0 0.0 0.00 0.00 0.00 93 1015.1
20260902025856 72 175 0.0 0.0 0.00 0.00 0.00 93 1016.4
20260902025347 72 175 0.0 0.0 0.00 0.00 0.00 93 1016.3
20260902024840 72 175 0.0 0.0 0.00 0.00 0.00 92 1016.2
20260902024555 72 175 0.0 0.0 0.00 0.00 0.00 92 1014.9
20260902024354 72 175 0.0 0.0 0.00 0.00 0.00 92 1016.3
20260902023846 72 175 0.0 0.0 0.00 0.00 0.00 92 1016.4
20260902023339 73 175 0.0 0.0 0.00 0.00 0.00 92 1016.5
20260902023053 72 175 0.0 0.0 0.00 0.00 0.00 92 1015.1
20260902022852 73 175 0.0 0.0 0.00 0.00 0.00 92 1016.4
20260902022345 73 175 0.0 0.0 0.00 0.00 0.00 92 1016.6
20260902021837 73 175 0.0 0.0 0.00 0.00 0.00 92 1016.8
20260902021556 73 175 0.0 0.0 0.00 0.00 0.00 92 1015.4
20260902021350 73 175 0.0 0.0 0.00 0.00 0.00 92 1016.8
20260902020843 74 175 0.0 0.0 0.00 0.00 0.00 91 1016.8
20260902020357 74 175 0.0 0.0 0.00 0.00 0.00 91 1016.8
20260902020047 73 175 0.0 0.0 0.00 0.00 0.00 91 1015.3
20260902015846 74 175 0.0 0.0 0.00 0.00 0.00 91 1016.7
20260902015359 74 175 0.0 0.0 0.00 0.00 0.00 91 1016.7
20260902014852 74 175 0.0 0.0 0.00 0.00 0.00 91 1016.6
20260902014549 74 175 0.0 0.0 0.00 0.00 0.00 91 1015.1
20260902014345 74 175 0.0 0.0 0.00 0.00 0.00 91 1016.6
20260902013841 75 175 0.0 0.0 0.00 0.00 0.00 91 1016.6
20260902013354 75 175 0.0 0.0 0.00 0.00 0.00 91 1016.6
20260902013009 74 175 0.0 0.0 0.00 0.00 0.00 90 1015.2
20260902012907 75 175 0.0 0.0 0.00 0.00 0.00 90 1016.6
20260902012339 75 175 0.0 0.0 0.00 0.00 0.00 90 1016.4
20260902011851 75 175 0.0 0.0 0.00 0.00 0.00 90 1016.4
20260902011550 75 175 0.0 0.0 0.00 0.00 0.00 90 1014.9
20260902011344 75 175 0.0 0.0 0.00 0.00 0.00 90 1016.3
20260902010837 76 175 0.0 0.0 0.00 0.00 0.00 89 1016.3
20260902010411 76 175 0.0 0.0 0.00 0.00 0.00 89 1016.2
20260902010107 75 175 0.0 0.0 0.00 0.00 0.00 89 1014.7
20260902005839 76 175 0.0 0.0 0.00 0.00 0.00 89 1016.1
20260902005353 76 175 0.0 0.0 0.00 0.00 0.00 88 1016.1
20260902004845 77 175 0.0 0.0 0.00 0.00 0.00 87 1015.9
20260902004539 76 175 0.0 0.0 0.00 0.00 0.00 86 1014.4
20260902004338 77 175 0.0 2.0 0.00 0.00 0.00 85 1015.8
20260902003930 77 175 0.0 2.0 0.00 0.00 0.00 85 1015.7
20260902003339 77 175 0.0 2.0 0.00 0.00 0.00 86 1015.9
20260902003052 77 175 0.0 2.0 0.00 0.00 0.00 86 1014.5
20260902002850 77 175 0.0 0.0 0.00 0.00 0.00 87 1015.9
20260902002344 78 175 0.0 0.0 0.00 0.00 0.00 87 1015.9
20260902001837 78 175 0.0 0.0 0.00 0.00 0.00 86 1015.7
20260902001510 78 175 0.0 0.0 0.00 0.00 0.00 85 1014.2
20260902001410 78 175 0.0 0.0 0.00 0.00 0.00 83 1015.6
20260902000842 79 175 0.0 0.0 0.00 0.00 0.00 82 1015.6
20260902000417 79 175 0.0 0.0 0.00 0.00 0.00 82 1015.6
20260902000049 78 175 0.0 0.0 0.00 0.00 0.00 83 1014.2
20260901235844 79 175 0.0 0.0 0.00 0.00 0.00 83 1015.6
20260901235337 79 175 0.0 0.0 0.00 0.00 0.00 83 1015.6
20260901234850 79 175 0.0 0.0 0.00 0.00 0.00 83 1015.5
20260901234542 79 175 0.0 0.0 0.00 0.00 0.00 83 1014.0
20260901234343 80 175 0.0 0.0 0.00 0.00 0.00 83 1015.4
20260901233915 80 175 0.0 0.0 0.00 0.00 0.00 83 1015.4
20260901233347 80 175 0.0 0.0 0.00 0.00 0.00 82 1015.4
20260901233049 80 175 0.0 0.0 0.00 0.00 0.00 82 1014.0
20260901232839 81 175 0.0 1.0 0.00 0.00 0.00 81 1015.4
20260901231842 82 175 0.0 1.0 0.00 0.00 0.00 77 1015.3
20260901231542 81 175 0.0 1.0 0.00 0.00 0.00 77 1013.9
20260901231335 82 175 0.0 0.0 0.00 0.00 0.00 78 1015.3
20260901230847 82 175 0.0 2.0 0.00 0.00 0.00 78 1015.3
20260901230342 83 175 0.0 3.0 0.00 0.00 0.00 74 1015.3
20260901230037 83 175 0.0 3.0 0.00 0.00 0.00 73 1013.9
20260901225835 84 175 1.0 3.0 0.00 0.00 0.00 72 1015.3
20260901225349 84 175 0.0 1.0 0.00 0.00 0.00 72 1015.4
20260901224841 84 175 0.0 1.0 0.00 0.00 0.00 72 1015.3
20260901224553 84 175 0.0 3.0 0.00 0.00 0.00 73 1013.9
20260901224352 85 175 0.0 4.0 0.00 0.00 0.00 72 1015.3
20260901223845 86 175 3.0 4.0 0.00 0.00 0.00 67 1015.2
20260901223338 86 173 1.0 3.0 0.00 0.00 0.00 67 1015.2
20260901223054 85 107 1.0 4.0 0.00 0.00 0.00 66 1013.7
20260901222851 86 107 0.0 4.0 0.00 0.00 0.00 67 1015.2
20260901222344 86 141 2.0 3.0 0.00 0.00 0.00 67 1015.2
20260901221857 86 111 1.0 3.0 0.00 0.00 0.00 68 1015.2
20260901221549 85 111 2.0 3.0 0.00 0.00 0.00 71 1013.7
20260901221348 85 50 1.0 3.0 0.00 0.00 0.00 75 1015.2
20260901220842 85 50 1.0 3.0 0.00 0.00 0.00 76 1015.3
20260901220351 84 50 0.0 2.0 0.00 0.00 0.00 77 1015.3
20260901220048 84 50 0.0 2.0 0.00 0.00 0.00 77 1013.9
20260901215847 85 133 1.0 2.0 0.00 0.00 0.00 76 1015.4
20260901215339 86 133 1.0 2.0 0.00 0.00 0.00 70 1015.4
20260901214912 87 221 1.0 3.0 0.00 0.00 0.00 72 1015.4
20260901214543 86 221 0.0 3.0 0.00 0.00 0.00 66 1014.0
20260901214343 87 221 1.0 3.0 0.00 0.00 0.00 65 1015.4
20260901213836 87 290 0.0 2.0 0.00 0.00 0.00 65 1015.3
20260901213348 87 159 0.0 2.0 0.00 0.00 0.00 66 1015.3
20260901213044 87 159 0.0 3.0 0.00 0.00 0.00 66 1013.8
20260901212840 88 159 1.0 5.0 0.00 0.00 0.00 66 1015.2
20260901212354 88 171 1.0 0.0 0.00 0.00 0.00 66 1014.8
20260901211845 88 215 1.0 3.0 0.00 0.00 0.00 64 1015.2
20260901211538 88 215 1.0 3.0 0.00 0.00 0.00 64 1013.6
20260901211338 88 142 0.0 3.0 0.00 0.00 0.00 64 1015.1
20260901210852 88 166 1.0 4.0 0.00 0.00 0.00 63 1015.0
20260901210344 88 200 2.0 3.0 0.00 0.00 0.00 64 1015.1
20260901210040 88 123 0.0 3.0 0.00 0.00 0.00 64 1013.7
20260901205836 88 123 1.0 3.0 0.00 0.00 0.00 64 1015.2
20260901205350 88 24 0.0 4.0 0.00 0.00 0.00 64 1015.2
20260901204839 88 136 1.0 4.0 0.00 0.00 0.00 64 1015.2
20260901204553 88 134 1.0 4.0 0.00 0.00 0.00 63 1013.7
20260901204352 88 224 2.0 6.0 0.00 0.00 0.00 62 1015.2
20260901203845 89 220 2.0 6.0 0.00 0.00 0.00 62 1015.3
20260901203337 89 119 2.0 7.0 0.00 0.00 0.00 62 1015.2
20260901203051 88 104 1.0 7.0 0.00 0.00 0.00 62 1013.8
20260901202851 89 109 2.0 7.0 0.00 0.00 0.00 61 1015.3
20260901202343 90 126 2.0 5.0 0.00 0.00 0.00 61 1015.3
20260901201836 90 198 2.0 6.0 0.00 0.00 0.00 60 1015.3
20260901201550 90 174 2.0 6.0 0.00 0.00 0.00 60 1013.9
20260901201350 90 166 3.0 6.0 0.00 0.00 0.00 60 1015.3
20260901200844 90 89 2.0 6.0 0.00 0.00 0.00 60 1015.3
20260901200358 90 153 3.0 6.0 0.00 0.00 0.00 58 1015.2
20260901195846 91 73 2.0 5.0 0.00 0.00 0.00 59 1015.2
20260901195400 92 39 3.0 5.0 0.00 0.00 0.00 57 1015.1
20260901194851 92 130 3.0 5.0 0.00 0.00 0.00 56 1015.1
20260901194557 92 88 2.0 5.0 0.00 0.00 0.00 57 1013.6
20260901194347 92 92 3.0 8.0 0.00 0.00 0.00 57 1015.0
20260901193840 93 41 2.0 8.0 0.00 0.00 0.00 55 1015.1
20260901193353 93 192 3.0 5.0 0.00 0.00 0.00 55 1015.2
20260901193051 92 135 2.0 4.0 0.00 0.00 0.00 55 1013.9
20260901192846 92 72 1.0 5.0 0.00 0.00 0.00 54 1015.3
20260901192437 94 84 3.0 6.0 0.00 0.00 0.00 54 1015.4
20260901191845 93 115 1.0 10.0 0.00 0.00 0.00 55 1015.4
20260901191541 94 42 3.0 10.0 0.00 0.00 0.00 52 1014.1
20260901191340 95 67 3.0 5.0 0.00 0.00 0.00 53 1015.3
20260901190853 93 116 2.0 6.0 0.00 0.00 0.00 53 1015.6
20260901190347 93 77 2.0 8.0 0.00 0.00 0.00 54 1015.6
20260901190043 93 153 3.0 8.0 0.00 0.00 0.00 53 1014.4
20260901185835 93 158 3.0 6.0 0.00 0.00 0.00 54 1015.9
20260901185349 94 41 2.0 7.0 0.00 0.00 0.00 51 1015.9
20260901184845 94 88 3.0 9.0 0.00 0.00 0.00 52 1015.9
20260901184537 94 156 3.0 9.0 0.00 0.00 0.00 51 1014.6
20260901184338 94 232 3.0 9.0 0.00 0.00 0.00 53 1016.0
20260901183851 94 143 4.0 8.0 0.00 0.00 0.00 51 1016.0
20260901183343 95 119 3.0 6.0 0.00 0.00 0.00 51 1015.9
20260901183041 95 65 2.0 6.0 0.00 0.00 0.00 52 1014.6
20260901182836 95 106 2.0 6.0 0.00 0.00 0.00 52 1016.0
20260901182349 95 248 2.0 6.0 0.00 0.00 0.00 51 1016.2
20260901181842 95 101 3.0 7.0 0.00 0.00 0.00 53 1016.2
20260901181557 94 135 3.0 7.0 0.00 0.00 0.00 51 1014.9
20260901181356 95 330 1.0 6.0 0.00 0.00 0.00 54 1016.3
20260901180847 94 334 3.0 6.0 0.00 0.00 0.00 54 1016.3
20260901180402 93 80 1.0 6.0 0.00 0.00 0.00 56 1016.3
20260901180051 93 80 2.0 6.0 0.00 0.00 0.00 56 1015.0
20260901175850 93 196 1.0 5.0 0.00 0.00 0.00 56 1016.4
20260901175343 93 35 2.0 8.0 0.00 0.00 0.00 54 1016.2
20260901174834 92 245 2.0 10.0 0.00 0.00 0.00 56 1016.3
20260901174559 91 227 3.0 10.0 0.00 0.00 0.00 56 1014.9
20260901174348 91 121 3.0 10.0 0.00 0.00 0.00 57 1016.4
20260901173840 92 56 2.0 5.0 0.00 0.00 0.00 59 1016.4
20260901173334 93 68 2.0 5.0 0.00 0.00 0.00 57 1016.2
20260901173008 93 82 2.0 7.0 0.00 0.00 0.00 58 1014.8
20260901172907 94 167 2.0 7.0 0.00 0.00 0.00 58 1016.1
20260901172339 93 113 3.0 7.0 0.00 0.00 0.00 58 1016.1
20260901171851 92 144 3.0 7.0 0.00 0.00 0.00 59 1016.1
20260901171549 92 126 2.0 7.0 0.00 0.00 0.00 60 1014.7
20260901171344 92 154 3.0 7.0 0.00 0.00 0.00 61 1016.1
20260901170838 91 41 2.0 7.0 0.00 0.00 0.00 63 1016.2
20260901170350 90 56 2.0 3.0 0.00 0.00 0.00 62 1016.3
20260901170122 90 48 0.0 3.0 0.00 0.00 0.00 64 1015.0
20260901165840 90 48 2.0 3.0 0.00 0.00 0.00 64 1016.3
20260901165353 89 197 2.0 7.0 0.00 0.00 0.00 65 1016.3
20260901164846 89 230 1.0 7.0 0.00 0.00 0.00 66 1016.5
20260901164545 88 195 3.0 7.0 0.00 0.00 0.00 64 1015.2
20260901164344 89 234 2.0 7.0 0.00 0.00 0.00 64 1016.5
20260901163837 89 108 3.0 7.0 0.00 0.00 0.00 65 1016.5
20260901163347 89 75 3.0 7.0 0.00 0.00 0.00 64 1016.6
20260901163041 89 184 2.0 5.0 0.00 0.00 0.00 66 1015.4
20260901162840 89 131 2.0 5.0 0.00 0.00 0.00 65 1016.8
20260901162353 89 217 3.0 5.0 0.00 0.00 0.00 66 1016.7
20260901161845 88 265 1.0 4.0 0.00 0.00 0.00 65 1016.6
20260901161546 88 158 2.0 4.0 0.00 0.00 0.00 65 1015.3
20260901161339 88 84 2.0 3.0 0.00 0.00 0.00 67 1016.6
20260901160851 88 118 1.0 7.0 0.00 0.00 0.00 67 1016.6
20260901160404 88 195 4.0 7.0 0.00 0.00 0.00 65 1016.8
20260901160054 88 300 3.0 7.0 0.00 0.00 0.00 66 1015.4
20260901155853 88 82 1.0 8.0 0.00 0.00 0.00 67 1016.8
20260901155346 88 232 3.0 8.0 0.00 0.00 0.00 67 1017.0
20260901154839 87 215 4.0 6.0 0.00 0.00 0.00 67 1016.9
20260901154512 87 88 1.0 5.0 0.00 0.00 0.00 68 1015.6
20260901154411 87 140 1.0 5.0 0.00 0.00 0.00 69 1016.8
20260901153842 86 155 2.0 5.0 0.00 0.00 0.00 71 1016.8
20260901153058 85 115 1.0 5.0 0.00 0.00 0.00 73 1015.6
20260901152837 85 245 2.0 5.0 0.00 0.00 0.00 72 1017.0
20260901152412 85 167 2.0 5.0 0.00 0.00 0.00 74 1016.9
20260901151920 85 80 327.0 327.0 0.00 0.00 0.00 72 1016.5
20260901151557 85 104 1.0 5.0 0.00 0.00 0.00 73 1015.6
20260901150052 84 189 3.0 7.0 0.00 0.00 0.00 75 1015.7
20260901144551 82 171 1.0 3.0 0.00 0.00 0.00 81 1015.7
20260901143049 80 182 0.0 3.0 0.00 0.00 0.00 85 1015.9
20260901141545 80 242 0.0 0.0 0.00 0.00 0.00 85 1016.0
20260901140040 77 242 0.0 0.0 0.00 0.00 0.00 88 1016.1
20260901134537 76 242 0.0 2.0 0.00 0.00 0.00 89 1016.3
20260901133038 72 171 0.0 2.0 0.00 0.00 0.00 95 1016.5
20260901131540 70 171 0.0 0.0 0.00 0.00 0.00 95 1016.6
20260901130034 70 171 0.0 0.0 0.00 0.00 0.00 95 1016.7
20260901124532 69 171 0.0 0.0 0.00 0.00 0.00 95 1016.7
20260901123039 69 171 0.0 0.0 0.00 0.00 0.00 95 1016.8
20260901121533 69 171 0.0 0.0 0.00 0.00 0.00 95 1016.8
20260901120030 69 171 0.0 0.0 0.00 0.00 0.00 95 1016.8
20260901114528 68 170 0.0 0.0 0.00 0.00 0.00 95 1016.8
20260901113029 68 171 0.0 0.0 0.00 0.00 0.00 95 1016.6
20260901111528 68 171 0.0 0.0 0.00 0.00 0.00 95 1016.5
20260901110026 68 171 0.0 0.0 0.00 0.00 0.00 95 1016.3
20260901104529 68 171 0.0 0.0 0.00 0.00 0.00 95 1016.2
20260901103025 69 171 0.0 0.0 0.00 0.00 0.00 95 1016.1
20260901101524 69 171 0.0 0.0 0.00 0.00 0.00 95 1016.1
20260901100027 69 171 0.0 0.0 0.00 0.00 0.00 95 1016.1
20260901094523 69 171 0.0 0.0 0.00 0.00 0.00 95 1016.2
20260901093022 69 171 0.0 0.0 0.00 0.00 0.00 95 1016.1
20260901091522 69 170 0.0 0.0 0.00 0.00 0.00 95 1016.0
20260901090031 69 170 0.0 0.0 0.00 0.00 0.00 94 1016.0
20260901084520 69 171 0.0 0.0 0.00 0.00 0.00 94 1016.0
20260901083030 69 171 0.0 0.0 0.00 0.00 0.00 94 1016.1
20260901081520 69 171 0.0 0.0 0.00 0.00 0.00 94 1016.2
20260901080017 69 171 0.0 0.0 0.00 0.00 0.00 94 1016.1
20260901074525 69 171 0.0 0.0 0.00 0.00 0.00 94 1016.2
20260901073028 69 171 0.0 0.0 0.00 0.00 0.00 94 1016.3
20260901071514 69 171 0.0 0.0 0.00 0.00 0.00 94 1016.2
20260901070021 69 170 0.0 0.0 0.00 0.00 0.00 94 1016.2
20260901065412 70 171 0.0 0.0 0.00 0.00 0.00 94 1017.4
20260901064843 70 171 0.0 0.0 0.00 0.00 0.00 94 1017.5
20260901064539 69 171 0.0 0.0 0.00 0.00 0.00 94 1016.4
20260901064336 70 171 0.0 0.0 0.00 0.00 0.00 94 1017.5
20260901063850 70 171 0.0 0.0 0.00 0.00 0.00 94 1017.5
20260901063038 70 171 0.0 0.0 0.00 0.00 0.00 94 1016.4
20260901062837 70 171 0.0 0.0 0.00 0.00 0.00 94 1017.6
20260901062349 70 171 0.0 0.0 0.00 0.00 0.00 94 1017.6
20260901061514 70 171 0.0 0.0 0.00 0.00 0.00 94 1016.5
20260901061411 70 171 0.0 0.0 0.00 0.00 0.00 94 1017.7
20260901060341 70 171 0.0 0.0 0.00 0.00 0.00 94 1017.9
20260901060051 70 171 0.0 0.0 0.00 0.00 0.00 94 1016.7
20260901055849 71 171 0.0 0.0 0.00 0.00 0.00 94 1017.9
20260901055342 71 171 0.0 0.0 0.00 0.00 0.00 94 1017.9
20260901054838 71 171 0.0 0.0 0.00 0.00 0.00 94 1018.0
20260901054552 70 170 0.0 0.0 0.00 0.00 0.00 94 1016.8
20260901054351 71 171 0.0 0.0 0.00 0.00 0.00 94 1018.0
20260901053843 71 171 0.0 0.0 0.00 0.00 0.00 94 1018.0
20260901053336 71 171 0.0 0.0 0.00 0.00 0.00 94 1018.0
20260901053117 70 171 0.0 0.0 0.00 0.00 0.00 94 1016.9
20260901052850 71 171 0.0 0.0 0.00 0.00 0.00 94 1018.1
20260901052343 71 171 0.0 0.0 0.00 0.00 0.00 94 1018.1
20260901051836 71 171 0.0 0.0 0.00 0.00 0.00 94 1018.2
20260901051548 71 171 0.0 0.0 0.00 0.00 0.00 94 1016.9
20260901051348 71 171 0.0 0.0 0.00 0.00 0.00 94 1018.1
20260901050842 71 171 0.0 0.0 0.00 0.00 0.00 94 1018.2
20260901050355 71 171 0.0 0.0 0.00 0.00 0.00 94 1018.2
20260901050051 71 171 0.0 0.0 0.00 0.00 0.00 94 1016.9
20260901045844 71 171 0.0 0.0 0.00 0.00 0.00 94 1018.1
20260901045337 72 171 0.0 0.0 0.00 0.00 0.00 94 1018.1
20260901044910 72 171 0.0 0.0 0.00 0.00 0.00 94 1018.1
20260901044542 71 171 0.0 0.0 0.00 0.00 0.00 94 1016.9
20260901044342 72 171 0.0 0.0 0.00 0.00 0.00 94 1018.1
20260901043836 72 171 0.0 0.0 0.00 0.00 0.00 94 1018.2
20260901043347 72 171 0.0 0.0 0.00 0.00 0.00 94 1018.1
20260901043041 71 171 0.0 0.0 0.00 0.00 0.00 94 1016.9
20260901042841 72 171 0.0 0.0 0.00 0.00 0.00 94 1018.1
20260901042354 72 171 0.0 0.0 0.00 0.00 0.00 94 1018.1
20260901041847 72 171 0.0 0.0 0.00 0.00 0.00 94 1018.1
20260901041539 71 171 0.0 0.0 0.00 0.00 0.00 94 1016.9
20260901041338 72 171 0.0 0.0 0.00 0.00 0.00 94 1018.2
20260901040851 72 171 0.0 0.0 0.00 0.00 0.00 94 1018.2
20260901040405 72 171 0.0 0.0 0.00 0.00 0.00 94 1018.3
20260901040052 72 171 0.0 0.0 0.00 0.00 0.00 94 1017.1
20260901035851 72 170 0.0 0.0 0.00 0.00 0.00 94 1018.4
20260901035343 72 171 0.0 0.0 0.00 0.00 0.00 94 1018.4
20260901034840 72 170 0.0 0.0 0.00 0.00 0.00 94 1018.4
20260901034555 72 171 0.0 0.0 0.00 0.00 0.00 94 1017.2
20260901034353 72 171 0.0 0.0 0.00 0.00 0.00 94 1018.4